Terminal Aerodrome Forecast
Issued by NWS Charleston, WV

Current Version | Previous Version | Graphics & Text | Print | Product List | Glossary On
Versions: 1 2 3 4 5 6 7 8 9 10 11 12 13 14 15 16 17 18 19 20 21 22 23 24 25 26 27
000
FTUS41 KRLX 192325
TAFPKB
TAF
KPKB 192325Z 2000/2024 20005KT P6SM VCTS BKN035CB
      TEMPO 2001/2003 29015G30KT 2SM TSRAGR BR BKN015CB
     FM200400 VRB03KT 5SM BR BKN015
     FM200900 00000KT 1 1/2SM BR SCT012
     FM201300 00000KT 4SM BR SCT015
     FM201400 00000KT P6SM BKN020
     FM201800 00000KT P6SM SHRA VCTS BKN025CB
     FM202000 VRB03KT P6SM BKN050=

USA.gov is the U.S. government's official web portal to all federal, state and local government web resources and services.